Weather in Poddubye

Russia / Pskov Oblast     56°26′38″N   29°19′32″E
temp.,
°C
wind,
m/s
gust,
m/s
humid.,
%
clouds,
%
prec.,
mm/h
press.,
hPa
HPBL,
m
8 march, mon
mon800:00−5wnw51093100 0.4 1000802
03:00−6nw4993100 0.8 1001604
06:00−9nw4109462 0.0 1003445
09:00−8nnw498881 0.2 1006804
12:00−7nnw4778100 0.1 1008849
15:00−6nnw5777100 0.2 1010931
18:00−7nnw4781100 0.1 1012911
21:00−9nnw279499 0.1 1015242
9 march, tue
tue900:00−11nnw269785 0.0 1016182
03:00−12nnw259778 0.1 1018143
06:00−13nw249777 0.0 1019125
09:00−12nnw378849 0.0 1020274
12:00−7nw357540 0.0 1021775
15:00−5nw237070 0.1 1021980
18:00−6e0084100 0.1 1020280
21:00−7se3695100 1.3 1022323
10 march, wed
wed1000:00−8ese4894100 2.1 1022393
03:00−10e4993100 3.5 1023424
06:00−11e4992100 0.9 1024386
09:00−12e4990100 1.4 1026372
12:00−10e4875100 0.1 1028517
15:00−8ese476697 0.1 1028647
18:00−9ese377277 0.0 1028550
21:00−12ese4107889 0.0 1029372
11 march, thu
thu1100:00−13se4107899 0.0 1030377
03:00−13se4107699 0.0 1030348
06:00−13sse41090100 0.1 1028357
09:00−14sse498896 0.1 1028307
12:00−9sse498479 0.0 1026374
15:00−4sse5107846 0.0 1024662
18:00−6sse5118327 0.0 1022730
21:00−8sse6149064 0.0 1019627
12 march, fri
fri1200:00−8sse61589100 0.1 1017770
03:00−7sse71587100 0.1 1013892
06:00−7sse81788100 0.1 1008782
09:00−6sse81692100 2.0 10051013
12:00−3s71392100 1.9 1003914
15:000s51192100 3.0 1001564
18:00+1ssw3899100 0.1 1001359
21:00+1sw4119499 0.1 1003487